Regional Weather Roundup
Issued by NWS

Home | Current Version | Previous Version | Text Only | Print | Product List | Glossary Off
Versions: 1 2 3 4 5 6 7 8 9 10 11 12 13 14 15 16 17 18 19 20 21 22 23 24 25 26 27 28 29 30 31 32 33 34 35 36 37 38 39 40 41 42 43 44 45 46 47 48 49 50

000
ASUS43 KLMK 211110
RWRKY
KENTUCKY REGIONAL WEATHER ROUNDUP
NATIONAL WEATHER SERVICE LOUISVILLE KY
600 AM EST TUE FEB 21 2017

NOTE "FAIR" INDICATES FEW OR NO CLOUDS BELOW 12,000 FEET
WITH NO SIGNIFICANT WEATHER AND/OR OBSTRUCTIONS TO VISIBILITY.

KYZ001>023-026-027-061>063-070>075-211200-
WESTERN AND SOUTH CENTRAL KENTUCKY

CITY           SKY/WX    TMP DP  RH WIND       PRES   REMARKS
PADUCAH        CLOUDY    59  46  62 SE6       29.92S
HENDERSON      CLOUDY    57  45  62 SE6       29.95R
OWENSBORO      CLOUDY    57  46  66 SE7       29.98R
HOPKINSVILLE   MOCLDY    58  47  67 SE6       29.96S
BOWLING GREEN  CLOUDY    51  45  79 CALM      30.01R
GLASGOW        CLOUDY    61  44  54 S6        30.01R
$$

KYZ024-025-028>034-038-045-046-053-211200-
NORTH CENTRAL KENTUCKY

CITY           SKY/WX    TMP DP  RH WIND       PRES   REMARKS
LOUISVILLE/SDF CLOUDY    56  41  57 SE3       29.99F
LOUISVILLE/LOU PTCLDY    52  42  69 CALM      30.00S
FORT KNOX      PTCLDY    57  45  64 SE6       29.98S
$$

KYZ035>037-039>044-047>052-055>060-089>105-211200-
NORTHEAST KENTUCKY

CITY           SKY/WX    TMP DP  RH WIND       PRES   REMARKS
LEXINGTON      PTCLDY    59  43  55 S15       30.03S
COVINGTON      MOCLDY    50  41  71 S8        30.01S
FRANKFORT      PTCLDY    50  40  68 S3        30.01S
$$

KYZ054-064>069-076>088-106>120-211200-
SOUTHEAST KENTUCKY

CITY           SKY/WX    TMP DP  RH WIND       PRES   REMARKS
JACKSON        CLOUDY    55  37  50 S6        30.09S
LONDON         PTCLDY    51  39  63 SE6       30.08F
SOMERSET       PTCLDY    50  41  71 CALM      30.08S
MIDDLESBORO    CLOUDY    40  40 100 CALM      30.13S
MONTICELLO     CLOUDY    60  44  55 E7        30.07F
$$





USA.gov is the U.S. government's official web portal to all federal, state and local government web resources and services.